KD8BMB Weather Reports


Display with metric or nautical units.
time (UTC)temp
F
wind
direction
speed
MPH
gust
MPH
rain 1hr
in
rain 24hr
in
rain mn
in
humidity
%
barometer
mb
20260509220837 66 274 2.0 3.0 0.00 0.07 0.07 41 1002.4
20260509220334 66 251 10.0 14.0 0.00 0.07 0.07 40 1002.3
20260509215829 67 312 3.0 5.0 0.00 0.07 0.07 41 1002.2
20260509215326 67 154 4.0 6.0 0.00 0.07 0.07 40 1002.3
20260509214823 67 238 6.0 8.0 0.00 0.07 0.07 40 1001.9
20260509214320 66 319 9.0 17.0 0.00 0.07 0.07 40 1001.9
20260509213817 67 295 8.0 10.0 0.00 0.07 0.07 40 1001.9
20260509213312 67 240 7.0 9.0 0.00 0.07 0.07 39 1001.8
20260509212810 67 293 9.0 10.0 0.00 0.07 0.07 40 1001.9
20260509212308 68 297 2.0 6.0 0.00 0.07 0.07 39 1001.8
20260509211803 68 263 10.0 13.0 0.00 0.07 0.07 40 1001.8
20260509211259 67 265 7.0 10.0 0.00 0.07 0.07 40 1001.6
20260509210756 67 271 9.0 11.0 0.00 0.07 0.07 41 1001.5
20260509210254 67 341 13.0 18.0 0.00 0.07 0.07 41 1001.5
20260509205753 67 223 8.0 11.0 0.00 0.07 0.07 42 1001.3
20260509205248 67 241 7.0 10.0 0.00 0.07 0.07 44 1001.6
20260509204744 67 269 7.0 9.0 0.00 0.07 0.07 42 1001.5
20260509204241 66 295 10.0 13.0 0.00 0.07 0.07 42 1001.5
20260509203737 68 244 5.0 8.0 0.00 0.07 0.07 43 1001.5
20260509203235 67 289 14.0 21.0 0.00 0.07 0.07 43 1001.5
20260509202730 66 282 8.0 9.0 0.00 0.07 0.07 44 1001.6
20260509202227 67 194 8.0 14.0 0.00 0.07 0.07 44 1001.9
20260509201721 66 265 13.0 20.0 0.00 0.07 0.07 45 1001.6
20260509201218 67 263 13.0 17.0 0.00 0.07 0.07 45 1001.6
20260509200715 66 294 9.0 17.0 0.00 0.07 0.07 47 1001.6
20260509200209 65 255 5.0 7.0 0.00 0.07 0.07 47 1001.6
20260509195705 65 273 9.0 13.0 0.00 0.07 0.07 48 1001.6
20260509195201 65 310 6.0 10.0 0.00 0.07 0.07 48 1001.8
20260509194655 64 296 4.0 8.0 0.00 0.07 0.07 51 1001.8
20260509194152 64 247 13.0 17.0 0.00 0.07 0.07 49 1002.1
20260509193648 64 224 12.0 18.0 0.00 0.07 0.07 50 1002.2
20260509193144 64 291 7.0 10.0 0.00 0.07 0.07 51 1002.5
20260509192641 63 214 9.0 11.0 0.00 0.07 0.07 50 1002.1
20260509192135 63 232 10.0 13.0 0.00 0.07 0.07 52 1002.2
20260509191629 63 235 7.0 9.0 0.00 0.07 0.07 54 1002.3
20260509191127 63 317 7.0 10.0 0.00 0.07 0.07 53 1002.1
20260509190623 63 211 2.0 5.0 0.00 0.07 0.07 52 1002.3
20260509190120 63 283 3.0 5.0 0.00 0.07 0.07 52 1002.1
20260509185618 62 205 7.0 9.0 0.00 0.07 0.07 53 1002.1
20260509185114 62 270 5.0 7.0 0.00 0.07 0.07 54 1002.0
20260509184612 62 216 4.0 6.0 0.00 0.07 0.07 55 1001.9
20260509184109 63 299 6.0 10.0 0.00 0.07 0.07 55 1002.0
20260509183604 63 285 6.0 9.0 0.00 0.07 0.07 54 1001.9
20260509183100 64 299 7.0 10.0 0.00 0.07 0.07 55 1002.0
20260509182556 64 327 12.0 17.0 0.00 0.07 0.07 54 1001.8
20260509182053 64 332 4.0 7.0 0.00 0.07 0.07 56 1001.8
20260509181552 64 221 3.0 6.0 0.00 0.07 0.07 56 1002.0
20260509181048 64 334 6.0 8.0 0.00 0.07 0.07 55 1001.8
20260509180544 64 198 5.0 8.0 0.00 0.07 0.07 54 1002.0
20260509180042 64 209 6.0 10.0 0.00 0.07 0.07 54 1001.9
20260509175537 65 217 7.0 13.0 0.00 0.07 0.07 54 1001.8
20260509175035 66 302 10.0 14.0 0.00 0.07 0.07 53 1001.5
20260509174531 66 275 10.0 18.0 0.00 0.07 0.07 54 1001.6
20260509174026 65 256 6.0 8.0 0.00 0.07 0.07 64 1001.3
20260509173520 63 321 5.0 8.0 0.00 0.07 0.07 69 1001.3
20260509173018 62 280 5.0 8.0 0.05 0.07 0.07 74 1001.2
20260509172515 60 292 7.0 9.0 0.05 0.07 0.07 78 1001.2
20260509172010 59 259 5.0 8.0 0.07 0.06 0.06 82 1001.1
20260509171506 59 256 4.0 5.0 0.38 0.06 0.06 84 1001.2
20260509171003 61 231 5.0 5.0 0.31 0.05 0.05 78 1001.4
20260509170458 67 272 8.0 10.0 0.00 0.00 0.00 55 1001.2
20260509165954 68 277 7.0 8.0 0.00 0.00 0.00 53 1001.0
20260509165453 67 212 5.0 9.0 0.00 0.00 0.00 54 1001.0
20260509164949 67 176 5.0 7.0 0.00 0.00 0.00 55 1001.5
20260509164445 67 283 3.0 5.0 0.00 0.00 0.00 58 1001.2
20260509163941 68 261 9.0 13.0 0.00 0.00 0.00 56 1001.1
20260509163439 68 193 5.0 7.0 0.00 0.00 0.00 57 1001.1
20260509162938 67 206 7.0 8.0 0.00 0.00 0.00 58 1001.1
20260509162437 67 269 6.0 7.0 0.00 0.00 0.00 57 1001.2
20260509161932 66 278 4.0 7.0 0.00 0.00 0.00 59 1001.0
20260509161429 66 255 7.0 8.0 0.00 0.00 0.00 59 1001.3
20260509160924 65 208 5.0 9.0 0.00 0.00 0.00 60 1001.1
20260509160420 66 184 9.0 13.0 0.00 0.00 0.00 60 1001.2
20260509155916 67 286 6.0 14.0 0.00 0.00 0.00 60 1001.4
20260509155413 66 96 0.0 0.0 0.00 0.00 0.00 62 1001.3
20260509154909 65 286 3.0 6.0 0.00 0.00 0.00 62 1001.3
20260509154405 66 98 1.0 2.0 0.00 0.00 0.00 61 1001.1
20260509153902 65 203 1.0 2.0 0.00 0.00 0.00 64 1001.3
20260509153359 64 278 4.0 5.0 0.00 0.00 0.00 63 1001.4
20260509152856 63 212 0.0 1.0 0.00 0.00 0.00 67 1001.8
20260509152352 62 235 0.0 0.0 0.00 0.00 0.00 70 1001.8
20260509151850 62 246 2.0 5.0 0.00 0.00 0.00 71 1001.7
20260509151345 61 129 3.0 3.0 0.00 0.00 0.00 71 1001.8
20260509150844 61 217 3.0 3.0 0.00 0.00 0.00 73 1001.9
20260509150341 61 221 0.0 0.0 0.00 0.00 0.00 74 1001.7
20260509145838 61 251 0.0 0.0 0.00 0.00 0.00 73 1002.0
20260509145333 61 91 3.0 3.0 0.00 0.00 0.00 76 1001.9
20260509144830 60 304 0.0 0.0 0.00 0.00 0.00 78 1002.0
20260509144327 59 132 0.0 0.0 0.00 0.00 0.00 79 1002.1
20260509143824 59 315 0.0 0.0 0.00 0.00 0.00 81 1002.0
20260509143322 59 261 1.0 1.0 0.00 0.00 0.00 80 1002.0
20260509142817 58 242 1.0 1.0 0.00 0.00 0.00 81 1001.9
20260509142314 57 263 0.0 0.0 0.00 0.00 0.00 83 1002.1
20260509141809 58 112 1.0 3.0 0.00 0.00 0.00 83 1002.3
20260509141307 58 276 5.0 8.0 0.00 0.00 0.00 82 1002.1
20260509140803 57 91 1.0 1.0 0.00 0.00 0.00 87 1002.0
20260509140300 57 127 0.0 0.0 0.00 0.00 0.00 88 1002.3
20260509135758 56 214 3.0 3.0 0.00 0.00 0.00 88 1002.5
20260509135255 55 77 2.0 2.0 0.00 0.00 0.00 89 1002.4
20260509134752 54 205 0.0 0.0 0.00 0.00 0.00 93 1002.3
20260509134250 54 158 0.0 1.0 0.00 0.00 0.00 94 1002.7
20260509133747 53 231 0.0 1.0 0.00 0.00 0.00 94 1002.7
20260509133243 54 279 0.0 1.0 0.00 0.00 0.00 94 1002.6
20260509132742 54 47 0.0 0.0 0.00 0.00 0.00 93 1003.5
20260509132240 54 93 2.0 2.0 0.00 0.00 0.00 91 1003.6
20260509131737 54 269 0.0 0.0 0.00 0.00 0.00 89 1004.3
20260509131233 55 322 0.0 0.0 0.00 0.00 0.00 88 1004.3
20260509130729 55 356 2.0 2.0 0.00 0.00 0.00 86 1004.3
20260509130225 56 297 5.0 7.0 0.00 0.00 0.00 84 1004.2
20260509125722 56 295 2.0 2.0 0.00 0.00 0.00 83 1003.5
20260509125219 56 223 0.0 0.0 0.00 0.00 0.00 83 1002.7
20260509124715 56 315 1.0 3.0 0.00 0.00 0.00 83 1002.7
20260509124212 57 194 0.0 0.0 0.00 0.00 0.00 82 1002.9
20260509123710 57 209 0.0 0.0 0.00 0.00 0.00 82 1002.9
20260509123207 57 225 1.0 2.0 0.00 0.00 0.00 82 1003.1
20260509122702 57 212 1.0 3.0 0.00 0.00 0.00 81 1002.8
20260509122200 56 235 2.0 6.0 0.00 0.00 0.00 83 1003.1
20260509121656 56 189 1.0 1.0 0.00 0.00 0.00 84 1002.9
20260509121154 55 218 0.0 0.0 0.00 0.00 0.00 86 1003.0
20260509120652 54 150 1.0 2.0 0.00 0.00 0.00 88 1003.2
20260509120150 54 228 0.0 0.0 0.00 0.00 0.00 89 1003.4
20260509115647 53 205 0.0 0.0 0.00 0.00 0.00 91 1003.3
20260509115144 52 215 0.0 0.0 0.00 0.00 0.00 93 1003.4
20260509114642 52 182 0.0 0.0 0.00 0.00 0.00 93 1003.6
20260509114142 52 352 0.0 0.0 0.00 0.00 0.00 93 1003.7
20260509113639 52 65 0.0 0.0 0.00 0.00 0.00 94 1003.7
20260509113136 51 199 1.0 1.0 0.00 0.00 0.00 95 1003.7
20260509112632 50 214 0.0 0.0 0.00 0.00 0.00 96 1003.9
20260509112130 50 246 0.0 0.0 0.00 0.00 0.00 96 1003.7
20260509111627 50 73 1.0 2.0 0.00 0.00 0.00 96 1003.4
20260509111124 50 199 0.0 0.0 0.00 0.00 0.00 97 1003.6
20260509110621 50 234 0.0 0.0 0.00 0.00 0.00 97 1003.9
20260509110118 50 242 0.0 0.0 0.00 0.00 0.00 98 1003.6
20260509105616 49 261 0.0 0.0 0.00 0.00 0.00 98 1003.9
20260509105113 49 286 0.0 1.0 0.00 0.00 0.00 98 1003.9
20260509104610 49 288 0.0 0.0 0.00 0.00 0.00 99 1003.7
20260509104108 49 314 0.0 0.0 0.00 0.00 0.00 99 1003.6
20260509103605 48 100 0.0 0.0 0.00 0.00 0.00 99 1004.0
20260509103103 48 2 0.0 0.0 0.00 0.00 0.00 99 1003.7
20260509102600 48 273 0.0 0.0 0.00 0.00 0.00 98 1003.9
20260509102056 48 275 0.0 0.0 0.00 0.00 0.00 98 1004.1
20260509101553 47 246 0.0 0.0 0.00 0.00 0.00 98 1004.2
20260509101050 47 257 0.0 0.0 0.00 0.00 0.00 98 1003.7
20260509100547 47 230 0.0 0.0 0.00 0.00 0.00 97 1004.1
20260509100044 47 273 0.0 0.0 0.00 0.00 0.00 97 1004.3
20260509095540 46 298 0.0 0.0 0.00 0.00 0.00 96 1004.2
20260509095038 46 206 0.0 0.0 0.00 0.00 0.00 96 1004.3
20260509094534 46 256 0.0 0.0 0.00 0.00 0.00 95 1004.4
20260509094032 46 283 0.0 0.0 0.00 0.00 0.00 94 1004.5
20260509093530 46 255 0.0 0.0 0.00 0.00 0.00 93 1004.7
20260509093027 46 289 0.0 0.0 0.00 0.00 0.00 92 1004.6
20260509092525 46 277 0.0 0.0 0.00 0.00 0.00 92 1004.8
20260509092023 46 199 0.0 0.0 0.00 0.00 0.00 92 1005.0
20260509091520 45 301 0.0 0.0 0.00 0.00 0.00 91 1004.6
20260509091017 45 287 0.0 0.0 0.00 0.00 0.00 90 1004.7
20260509090514 44 345 0.0 0.0 0.00 0.00 0.00 89 1004.7
20260509090012 44 293 0.0 0.0 0.00 0.00 0.00 88 1004.7
20260509085509 44 267 0.0 0.0 0.00 0.00 0.00 87 1004.8
20260509085005 45 275 0.0 0.0 0.00 0.00 0.00 86 1004.7
20260509084502 45 271 0.0 0.0 0.00 0.00 0.00 85 1004.8
20260509083959 45 277 0.0 0.0 0.00 0.00 0.00 83 1004.7
20260509083456 45 294 0.0 0.0 0.00 0.00 0.00 82 1004.7
20260509082952 46 267 0.0 0.0 0.00 0.00 0.00 81 1005.0
20260509082450 45 264 0.0 0.0 0.00 0.00 0.00 80 1004.8
20260509081947 45 272 0.0 0.0 0.00 0.00 0.00 79 1004.9
20260509081444 45 198 0.0 0.0 0.00 0.00 0.00 77 1004.9
20260509080941 46 273 0.0 0.0 0.00 0.00 0.00 75 1004.8
20260509080440 46 296 0.0 0.0 0.00 0.00 0.00 73 1004.6
20260509075937 46 282 0.0 0.0 0.00 0.00 0.00 71 1004.7
20260509075434 46 255 0.0 0.0 0.00 0.00 0.00 70 1004.6
20260509074932 46 294 0.0 0.0 0.00 0.00 0.00 67 1004.5
20260509074429 46 262 0.0 0.0 0.00 0.00 0.00 64 1004.7
20260509073925 46 252 0.0 0.0 0.00 0.00 0.00 63 1004.8
20260509073422 46 255 0.0 0.0 0.00 0.00 0.00 61 1004.8
20260509072918 46 257 0.0 0.0 0.00 0.00 0.00 60 1005.0
20260509072415 46 250 0.0 0.0 0.00 0.00 0.00 58 1004.8
20260509071911 46 256 0.0 0.0 0.00 0.00 0.00 58 1005.0
20260509071409 45 304 0.0 0.0 0.00 0.00 0.00 57 1005.0
20260509070906 45 294 0.0 0.0 0.00 0.00 0.00 58 1004.9
20260509070403 45 318 0.0 0.0 0.00 0.00 0.00 58 1005.1
20260509065858 45 288 0.0 0.0 0.00 0.00 0.00 58 1005.2
20260509065355 45 230 0.0 0.0 0.00 0.00 0.00 59 1005.2
20260509064851 44 326 0.0 0.0 0.00 0.00 0.00 60 1005.2
20260509064349 44 279 0.0 0.0 0.00 0.00 0.00 60 1005.4
20260509063846 43 238 0.0 0.0 0.00 0.00 0.00 62 1005.5
20260509063342 43 328 0.0 0.0 0.00 0.00 0.00 65 1005.4
20260509062839 43 321 0.0 0.0 0.00 0.00 0.00 69 1005.5
20260509062336 43 312 0.0 0.0 0.00 0.00 0.00 71 1005.5
20260509061834 43 292 0.0 0.0 0.00 0.00 0.00 70 1005.4
20260509061332 42 299 0.0 0.0 0.00 0.00 0.00 69 1005.5
20260509060828 42 299 0.0 0.0 0.00 0.00 0.00 70 1005.4
20260509060326 42 299 0.0 0.0 0.00 0.00 0.00 71 1005.6
20260509055821 43 301 0.0 0.0 0.00 0.00 0.00 71 1005.5
20260509055316 44 301 0.0 0.0 0.00 0.00 0.00 73 1005.6
20260509054814 44 314 0.0 0.0 0.00 0.00 0.00 72 1005.5
20260509054310 44 297 0.0 0.0 0.00 0.00 0.00 70 1005.7
20260509053809 44 322 0.0 0.0 0.00 0.00 0.00 69 1005.4
20260509053305 45 350 0.0 0.0 0.00 0.00 0.00 70 1005.5
20260509052803 45 318 0.0 0.0 0.00 0.00 0.00 69 1005.8
20260509052301 46 303 0.0 0.0 0.00 0.00 0.00 68 1005.6
20260509051758 45 284 0.0 0.0 0.00 0.00 0.00 67 1005.8
20260509051256 46 331 0.0 0.0 0.00 0.00 0.00 67 1005.7
20260509050753 46 279 0.0 0.0 0.00 0.00 0.00 67 1005.7
20260509050249 46 15 0.0 0.0 0.00 0.00 0.00 66 1005.7
20260509045747 46 260 0.0 0.0 0.00 0.00 0.00 66 1005.9
20260509045243 47 260 0.0 0.0 0.00 0.00 0.00 63 1006.0
20260509044741 47 268 0.0 0.0 0.00 0.00 0.00 62 1005.9
20260509044238 47 277 0.0 0.0 0.00 0.00 0.00 63 1005.8
20260509043734 47 287 0.0 0.0 0.00 0.00 0.00 62 1005.9
20260509043230 47 265 0.0 0.0 0.00 0.00 0.00 65 1006.0
20260509042726 48 265 0.0 0.0 0.00 0.00 0.00 63 1006.0
20260509042223 48 265 0.0 0.0 0.00 0.00 0.00 61 1006.1
20260509041720 48 265 0.0 0.0 0.00 0.00 0.00 61 1005.8
20260509041217 49 263 0.0 0.0 0.00 0.00 0.00 62 1005.9
20260509040716 49 243 0.0 0.0 0.00 0.00 0.00 60 1006.2
20260509040212 49 244 0.0 0.0 0.00 0.00 0.00 61 1006.2
20260509035708 49 257 0.0 0.0 0.00 0.00 0.00 60 1006.3
20260509035205 49 258 0.0 0.0 0.00 0.00 0.00 61 1006.3
20260509034703 49 280 0.0 0.0 0.00 0.00 0.00 62 1006.1
20260509034200 49 289 0.0 0.0 0.00 0.00 0.00 59 1006.3
20260509033657 50 323 0.0 0.0 0.00 0.00 0.00 61 1006.4
20260509033154 50 316 0.0 0.0 0.00 0.00 0.00 61 1006.3
20260509032651 50 281 0.0 0.0 0.00 0.00 0.00 62 1006.3
20260509032148 49 292 0.0 0.0 0.00 0.00 0.00 63 1006.5
20260509031646 49 292 0.0 0.0 0.00 0.00 0.00 62 1006.8
20260509031143 49 292 0.0 0.0 0.00 0.00 0.00 62 1006.7
20260509030641 49 293 0.0 0.0 0.00 0.00 0.00 60 1006.5
20260509030138 49 293 0.0 0.0 0.00 0.00 0.00 60 1006.7
20260509025634 49 293 0.0 0.0 0.00 0.00 0.00 59 1006.7
20260509025130 49 292 0.0 0.0 0.00 0.00 0.00 61 1006.8
20260509024625 48 292 0.0 0.0 0.00 0.00 0.00 63 1006.8
20260509024121 48 315 0.0 0.0 0.00 0.00 0.00 62 1006.8
20260509023620 48 322 0.0 0.0 0.00 0.00 0.00 61 1006.7
20260509023116 48 322 0.0 0.0 0.00 0.00 0.00 60 1006.9
20260509022613 48 322 0.0 0.0 0.00 0.00 0.00 60 1006.7
20260509022111 49 322 0.0 0.0 0.00 0.00 0.00 59 1006.9
20260509021607 49 267 0.0 0.0 0.00 0.00 0.00 59 1007.0
20260509021104 49 268 0.0 0.0 0.00 0.00 0.00 58 1006.7
20260509020603 49 268 0.0 0.0 0.00 0.00 0.00 58 1006.9
20260509020059 49 268 0.0 0.0 0.00 0.00 0.00 58 1006.8
20260509015558 50 268 0.0 0.0 0.00 0.00 0.00 57 1006.9
20260509015055 50 268 0.0 0.0 0.00 0.00 0.00 56 1006.8
20260509014552 50 268 0.0 0.0 0.00 0.00 0.00 55 1006.8
20260509014048 51 268 0.0 0.0 0.00 0.00 0.00 54 1006.9
20260509013545 51 267 0.0 0.0 0.00 0.00 0.00 52 1006.6
20260509013040 52 268 0.0 0.0 0.00 0.00 0.00 51 1006.7
20260509012538 52 290 0.0 0.0 0.00 0.00 0.00 50 1006.6
20260509012034 53 292 0.0 0.0 0.00 0.00 0.00 50 1006.2
20260509011532 53 292 0.0 0.0 0.00 0.00 0.00 49 1006.3
20260509011029 53 292 0.0 0.0 0.00 0.00 0.00 47 1006.4
20260509010527 55 292 0.0 0.0 0.00 0.00 0.00 46 1006.3
20260509010024 55 289 0.0 0.0 0.00 0.00 0.00 44 1006.2
20260509005521 56 293 0.0 0.0 0.00 0.00 0.00 42 1006.2
20260509005021 56 292 0.0 0.0 0.00 0.00 0.00 40 1006.3
20260509004519 57 292 0.0 0.0 0.00 0.00 0.00 39 1006.1
20260509004015 57 292 0.0 0.0 0.00 0.00 0.00 38 1006.0
20260509003514 58 292 0.0 0.0 0.00 0.00 0.00 40 1006.1
20260509003010 58 316 0.0 0.0 0.00 0.00 0.00 37 1006.0
20260509002508 59 273 0.0 0.0 0.00 0.00 0.00 36 1006.2
20260509002005 59 276 0.0 0.0 0.00 0.00 0.00 36 1006.1
20260509001502 59 294 0.0 0.0 0.00 0.00 0.00 34 1006.0
20260509000959 60 310 0.0 0.0 0.00 0.00 0.00 33 1005.9
20260509000457 60 292 0.0 0.0 0.00 0.00 0.00 35 1006.0
20260508235952 60 266 0.0 0.0 0.00 0.00 0.00 33 1006.0
20260508235450 61 298 0.0 0.0 0.00 0.00 0.00 33 1006.0
20260508234947 61 282 0.0 0.0 0.00 0.00 0.00 31 1005.8
20260508234444 62 271 3.0 5.0 0.00 0.00 0.00 31 1005.8
20260508233941 62 259 2.0 2.0 0.00 0.00 0.00 31 1005.9
20260508233441 62 250 0.0 1.0 0.00 0.00 0.00 30 1006.0
20260508232937 63 281 1.0 1.0 0.00 0.00 0.00 31 1005.6
20260508232434 64 304 0.0 0.0 0.00 0.00 0.00 29 1005.8
20260508231931 64 303 1.0 2.0 0.00 0.00 0.00 30 1005.8
20260508231428 64 309 0.0 0.0 0.00 0.00 0.00 30 1005.8
20260508230925 63 279 4.0 5.0 0.00 0.00 0.00 29 1005.8
20260508230422 64 225 3.0 3.0 0.00 0.00 0.00 29 1006.0
20260508225919 64 282 3.0 6.0 0.00 0.00 0.00 30 1006.1
20260508225415 64 353 1.0 1.0 0.00 0.00 0.00 29 1006.2
20260508224913 64 262 4.0 6.0 0.00 0.00 0.00 28 1006.2
20260508224411 65 238 3.0 5.0 0.00 0.00 0.00 30 1006.0
20260508223908 65 266 0.0 0.0 0.00 0.00 0.00 29 1006.2
20260508223406 66 325 0.0 0.0 0.00 0.00 0.00 29 1006.2
20260508222903 65 268 1.0 2.0 0.00 0.00 0.00 30 1006.1
20260508222400 64 225 1.0 1.0 0.00 0.00 0.00 31 1006.3
20260508221856 64 262 0.0 0.0 0.00 0.00 0.00 31 1006.2
20260508221352 64 242 0.0 0.0 0.00 0.00 0.00 30 1006.2